Weather History for VTUK - September, 2013

Change the Weather History Date:

Saturday, September 21, 2013

  Actual Average Record
Temperature  
Mean Temperature 79 °F -  
Max Temperature 84 °F 89 °F - ()
Min Temperature 74 °F 73 °F - ()
Cooling Degree Days 14    
Growing Degree Days 29 (Base 50)    
Moisture  
Dew Point 76 °F    
Average Humidity 97    
Maximum Humidity 100    
Minimum Humidity 78    
Precipitation  
Precipitation 0.28 in 0.20 in - ()
Sea Level Pressure  
Sea Level Pressure 29.63 in    
Wind  
Wind Speed 6 mph ()    
Max Wind Speed 12 mph    
Max Gust Speed -    
Visibility 5.3 miles    
Events Rain    
T = Trace of Precipitation, MM = Missing Value Source: Averaged Metar Reports

Daily Weather History Graph

Daily Weather History Graph

Search for Another Location

Airport or City:

Trip Planner

Search our weather history database for the weather conditions in past years. The results will help you decide how hot, cold, wet, or windy it might be!

Date:

Astronomy

Sep. 21, 2013 Rise Set
Actual Time 5:57 AM ICT 6:06 PM ICT
Civil Twilight 5:36 AM ICT 6:27 PM ICT
Nautical Twilight 5:11 AM ICT 6:52 PM ICT
Astronomical Twilight 4:45 AM ICT 7:17 PM ICT
Moon 7:22 PM ICT (9/21) 7:20 AM ICT (9/21)
Length of Visible Light 12h 51m
Length of Day
12h 08m
Waning Gibbous, 96% of the Moon is Illuminated
Sep 21
Waning Gibbous
Sep 27
Last Quarter
Oct 5
New
Oct 12
First Quarter
Oct 19
Full

Hourly Weather History & Observations

Time (ICT) Temp. Heat Index Dew Point Humidity Pressure Visibility Wind Dir Wind Speed Gust Speed Precip Events Conditions
12:00 AM 77.0 °F - 77.0 °F 100% 29.65 in 6.2 mi ENE 6.9 mph - N/A   Overcast
1:00 AM 77 °F - 75 °F 92% 29.63 in 5 mi NE 8.1 mph - - Rain Light Rain
1:00 AM 77.0 °F - 77.0 °F 100% 29.65 in 5.0 mi NE 9.2 mph - N/A Rain Rain
2:00 AM 75.2 °F - 75.2 °F 100% 29.62 in 6.2 mi NE 8.1 mph - N/A   Mostly Cloudy
4:00 AM 75.2 °F - 75.2 °F 100% 29.62 in 6.2 mi NE 10.4 mph - N/A   Overcast
5:00 AM 75.2 °F - 75.2 °F 100% 29.62 in 6.2 mi NE 9.2 mph - N/A   Overcast
6:00 AM 75.2 °F - 75.2 °F 100% 29.62 in 1.9 mi NE 11.5 mph - N/A Rain Rain
7:00 AM 76 °F - 75 °F 96% 29.63 in 2 mi ENE 5.8 mph - - Rain Light Rain
7:00 AM 75.2 °F - 75.2 °F 100% 29.62 in 1.9 mi ENE 6.9 mph - N/A Rain Rain
8:00 AM 75.2 °F - 75.2 °F 100% 29.68 in 1.2 mi East 5.8 mph - N/A Rain Rain
9:00 AM 75.2 °F - 75.2 °F 100% 29.68 in 2.5 mi East 8.1 mph - N/A Rain Light Rain
10:00 AM 77.0 °F - 77.0 °F 100% 29.68 in 5.0 mi East 8.1 mph - N/A Rain Rain
11:00 AM 78.8 °F - 77.0 °F 94% 29.68 in 6.2 mi East 8.1 mph - N/A   Mostly Cloudy
12:00 PM 80.6 °F 87.1 °F 77.0 °F 89% 29.65 in 6.2 mi East 9.2 mph - N/A   Mostly Cloudy
1:00 PM 81 °F - 75 °F 78% 29.61 in 6 mi ESE 5.8 mph - -   Partly Cloudy
1:00 PM 80.6 °F 88.1 °F 78.8 °F 94% 29.62 in 6.2 mi East 6.9 mph - N/A   Scattered Clouds
2:00 PM 84.2 °F 96.1 °F 78.8 °F 84% 29.59 in 6.2 mi Variable 6.9 mph - N/A   Mostly Cloudy
3:00 PM 78.8 °F - 78.8 °F 100% 29.59 in 6.2 mi ESE 6.9 mph - N/A   Mostly Cloudy
4:00 PM 82.4 °F 92.4 °F 78.8 °F 89% 29.56 in 6.2 mi East 6.9 mph - N/A   Mostly Cloudy
5:00 PM 78.8 °F - 78.8 °F 100% 29.56 in 6.2 mi Variable 2.3 mph - N/A   Mostly Cloudy
6:00 PM 77.0 °F - 77.0 °F 100% 29.59 in 6.2 mi SE 3.5 mph - N/A   Mostly Cloudy
7:00 PM 78 °F - 77 °F 96% 29.60 in 6 mi Calm Calm - -   Partly Cloudy
7:00 PM 77.0 °F - 77.0 °F 100% 29.62 in 6.2 mi Calm Calm - N/A   Mostly Cloudy
8:00 PM 77.0 °F - 77.0 °F 100% 29.62 in 6.2 mi SSE 5.8 mph - N/A   Mostly Cloudy
9:00 PM 75.2 °F - 75.2 °F 100% 29.65 in 6.2 mi SSE 4.6 mph - N/A Rain Light Rain
10:00 PM 75.2 °F - 75.2 °F 100% 29.65 in 6.2 mi ESE 4.6 mph - N/A   Mostly Cloudy
11:00 PM 75.2 °F - 75.2 °F 100% 29.65 in 6.2 mi East 3.5 mph - N/A   Mostly Cloudy